N0XUT Weather Reports


time (UTC)temp
C
wind
direction
speed
KPH
gust
KPH
rain 1hr
cm
rain 24hr
cm
rain mn
cm
humidity
%
barometer
mb
20260906164457 23 82 4.8 14.5 0.00 0.00 0.00 83 1017.2
20260906162957 22 148 4.8 12.9 0.00 0.00 0.00 85 1017.5
20260906161457 22 138 4.8 11.3 0.00 0.00 0.00 85 1017.6
20260906155957 22 161 3.2 14.5 0.00 0.00 0.00 86 1017.5
20260906154457 22 121 4.8 12.9 0.00 0.00 0.00 86 1017.6
20260906151457 22 68 3.2 11.3 0.00 0.00 0.00 88 1017.5
20260906145957 21 113 1.6 12.9 0.00 0.00 0.00 89 1017.5
20260906144457 21 167 3.2 9.7 0.00 0.00 0.00 90 1017.3
20260906135957 20 81 8.0 16.1 0.00 0.00 0.00 93 1017.3
20260906134457 20 74 1.6 9.7 0.00 0.00 0.00 94 1017.1
20260906132957 20 164 1.6 12.9 0.00 0.00 0.00 94 1017.0
20260906125957 20 146 3.2 11.3 0.00 0.00 0.00 94 1016.7
20260906124457 20 69 3.2 16.1 0.00 0.00 0.00 94 1016.5
20260906122957 19 113 8.0 16.1 0.00 0.00 0.00 94 1016.4
20260906115957 19 90 4.8 11.3 0.00 0.00 0.00 94 1016.2
20260906114457 20 61 3.2 8.0 0.00 0.00 0.00 94 1016.1
20260906112957 20 91 3.2 8.0 0.00 0.00 0.00 94 1016.0
20260906111457 20 83 1.6 4.8 0.00 0.00 0.00 94 1016.1
20260906105957 20 77 1.6 4.8 0.00 0.00 0.00 94 1016.0
20260906101457 20 72 3.2 8.0 0.00 0.00 0.00 93 1015.6
20260906095957 20 107 0.0 4.8 0.00 0.00 0.00 93 1015.4
20260906094457 20 90 1.6 4.8 0.00 0.00 0.00 93 1015.2
20260906091458 21 67 1.6 14.5 0.00 0.00 0.00 93 1014.7
20260906085957 21 85 3.2 16.1 0.00 0.00 0.00 93 1014.7
20260906084457 21 91 3.2 11.3 0.00 0.00 0.00 93 1014.6
20260906082957 21 83 3.2 12.9 0.00 0.00 0.00 93 1014.8
20260906081457 21 61 3.2 4.8 0.00 0.00 0.00 92 1014.8
20260906075957 21 115 1.6 12.9 0.00 0.00 0.00 92 1014.6
20260906074458 21 90 4.8 14.5 0.00 0.00 0.00 91 1014.7
20260906072958 21 71 4.8 16.1 0.00 0.00 0.00 91 1014.8
20260906071457 21 63 8.0 14.5 0.00 0.00 0.00 91 1014.9
20260906064457 22 71 4.8 11.3 0.00 0.00 0.00 90 1015.2
20260906062958 22 96 4.8 12.9 0.00 0.00 0.00 90 1015.1
20260906061457 22 64 4.8 11.3 0.00 0.00 0.00 90 1015.1
20260906055957 22 94 3.2 12.9 0.00 0.00 0.00 90 1015.0
20260906054457 22 63 4.8 14.5 0.00 0.00 0.00 89 1014.9
20260906052957 22 38 4.8 12.9 0.00 0.00 0.00 90 1014.9
20260906051458 22 57 4.8 12.9 0.00 0.00 0.00 89 1014.7
20260906045957 22 77 4.8 12.9 0.00 0.00 0.00 89 1014.6
20260906044458 23 70 4.8 12.9 0.00 0.00 0.00 88 1014.7
20260906042958 23 73 4.8 16.1 0.00 0.00 0.00 88 1014.7
20260906041457 23 44 6.4 11.3 0.00 0.00 0.00 88 1014.8
20260906035957 23 86 3.2 11.3 0.00 0.00 0.00 88 1014.7
20260906034458 23 60 4.8 12.9 0.00 0.00 0.00 87 1014.6
20260906032957 23 82 6.4 16.1 0.00 0.00 0.00 87 1014.4
20260906031458 23 63 8.0 16.1 0.00 0.00 0.00 86 1014.4
20260906025957 23 65 8.0 14.5 0.00 0.00 0.00 86 1014.2
20260906024458 24 65 6.4 16.1 0.00 0.00 0.00 86 1014.1
20260906022958 24 61 6.4 14.5 0.00 0.00 0.00 86 1014.0
20260906021458 24 85 4.8 16.1 0.00 0.00 0.00 85 1013.7
20260906015957 25 90 8.0 14.5 0.00 0.00 0.00 84 1013.5
20260906014458 25 81 1.6 8.0 0.00 0.00 0.00 83 1013.2
20260906012958 25 83 1.6 8.0 0.00 0.00 0.00 83 1013.0
20260906011457 25 61 1.6 9.7 0.00 0.00 0.00 83 1012.9
20260906005958 25 89 3.2 4.8 0.00 0.00 0.00 83 1012.8
20260906002958 26 79 3.2 9.7 0.00 0.00 0.00 82 1012.6
20260906001457 26 71 1.6 12.9 0.00 0.00 0.00 81 1012.8
20260905235958 26 63 3.2 14.5 0.00 0.00 0.00 80 1012.5
20260905234457 26 65 4.8 12.9 0.00 0.00 0.00 79 1012.6
20260905232958 27 66 4.8 12.9 0.00 0.00 0.00 78 1012.5
20260905231458 27 84 9.7 19.3 0.00 0.00 0.00 78 1012.3
20260905224458 28 70 9.7 22.5 0.00 0.00 0.00 77 1011.9
20260905222958 28 72 9.7 27.4 0.00 0.00 0.00 77 1011.9
20260905221458 28 81 14.5 25.7 0.00 0.00 0.00 77 1011.8
20260905215958 28 67 12.9 25.7 0.00 0.00 0.00 77 1011.7
20260905212958 30 76 11.3 19.3 0.00 0.00 0.00 74 1011.8
20260905211458 30 36 8.0 19.3 0.00 0.00 0.00 75 1011.9
20260905205958 30 66 8.0 19.3 0.00 0.00 0.00 73 1012.2
20260905204458 30 42 9.7 19.3 0.00 0.00 0.00 73 1012.1
20260905202957 30 8 8.0 19.3 0.00 0.00 0.00 72 1012.4
20260905201458 31 2 8.0 19.3 0.00 0.00 0.00 71 1012.3
20260905195958 31 348 9.7 16.1 0.00 0.00 0.00 71 1012.6
20260905194458 31 71 8.0 19.3 0.00 0.00 0.00 70 1012.4
20260905185958 30 34 4.8 14.5 0.00 0.00 0.00 74 1013.1
20260905184458 30 4 8.0 14.5 0.00 0.00 0.00 75 1013.2
20260905182958 30 27 8.0 14.5 0.00 0.00 0.00 75 1013.1
20260905181457 30 74 8.0 16.1 0.00 0.00 0.00 75 1013.3
20260905175958 30 25 4.8 16.1 0.00 0.00 0.00 75 1013.0
20260905174458 30 83 9.7 16.1 0.00 0.00 0.00 73 1013.0
20260905172958 30 37 8.0 16.1 0.00 0.00 0.00 74 1012.9
20260905171458 30 49 4.8 19.3 0.00 0.00 0.00 77 1013.0